FW1657 Weather Reports


Display with metric or nautical units.
time (UTC)temp
F
wind
direction
speed
MPH
gust
MPH
rain 1hr
in
rain 24hr
in
rain mn
in
humidity
%
barometer
mb
20260903061553 59 35 7.0 11.0 0.00 0.00 0.00 73 1021.4
20260903060051 59 44 7.0 11.0 0.00 0.00 0.00 73 1021.2
20260903054550 59 33 8.0 13.0 0.00 0.00 0.00 72 1021.1
20260903053050 59 45 8.0 12.0 0.00 0.00 0.00 72 1021.0
20260903051554 59 28 8.0 12.0 0.00 0.00 0.00 72 1021.1
20260903050048 59 27 9.0 12.0 0.00 0.00 0.00 72 1020.7
20260903044546 60 31 9.0 11.0 0.00 0.00 0.00 71 1021.1
20260903043041 60 19 7.0 11.0 0.00 0.00 0.00 71 1021.1
20260903041540 59 27 7.0 12.0 0.00 0.00 0.00 72 1020.9
20260903040041 59 13 6.0 10.0 0.00 0.00 0.00 72 1021.3
20260903034540 59 19 6.0 10.0 0.00 0.00 0.00 73 1021.2
20260903033040 59 11 5.0 11.0 0.00 0.00 0.00 74 1021.2
20260903031538 59 14 6.0 10.0 0.00 0.00 0.00 75 1021.3
20260903030035 59 15 7.0 11.0 0.00 0.00 0.00 75 1021.3
20260903024542 58 10 6.0 10.0 0.00 0.00 0.00 75 1021.2
20260903023033 59 13 5.0 8.0 0.00 0.00 0.00 75 1021.4
20260903021536 59 19 4.0 6.0 0.00 0.00 0.00 74 1021.4
20260903020026 60 5 5.0 8.0 0.00 0.00 0.00 74 1021.4
20260903014522 59 31 5.0 8.0 0.00 0.00 0.00 75 1021.6
20260903013017 59 16 4.0 7.0 0.00 0.00 0.00 76 1021.4
20260903011514 58 27 4.0 6.0 0.00 0.00 0.00 79 1021.6
20260903010010 57 34 4.0 5.0 0.00 0.00 0.00 81 1021.9
20260903004513 57 45 2.0 4.0 0.00 0.00 0.00 83 1021.6
20260903003006 56 88 2.0 3.0 0.00 0.00 0.00 83 1021.9
20260903001506 55 88 1.0 2.0 0.00 0.00 0.00 83 1022.1
20260903000002 54 87 1.0 3.0 0.00 0.00 0.00 83 1022.0
20260902234502 54 88 1.0 2.0 0.00 0.00 0.00 83 1022.0
20260902233101 54 88 0.0 2.0 0.00 0.00 0.00 82 1022.0
20260902231559 55 88 2.0 3.0 0.00 0.00 0.00 82 1022.1
20260902224557 55 115 0.0 0.0 0.00 0.00 0.00 82 1022.2
20260902223104 55 115 0.0 0.0 0.00 0.00 0.00 82 1022.3
20260902221557 55 115 0.0 0.0 0.00 0.00 0.00 81 1022.2
20260902220051 56 115 0.0 0.0 0.00 0.00 0.00 81 1022.2
20260902214552 57 115 0.0 0.0 0.00 0.00 0.00 79 1022.2
20260902213050 57 115 0.0 0.0 0.00 0.00 0.00 79 1022.4
20260902211556 57 115 0.0 0.0 0.00 0.00 0.00 78 1022.2
20260902210057 58 115 0.0 0.0 0.00 0.00 0.00 77 1022.2
20260902204548 58 115 0.0 0.0 0.00 0.00 0.00 76 1022.0
20260902203049 59 115 0.0 0.0 0.00 0.00 0.00 76 1022.1
20260902201549 59 115 0.0 0.0 0.00 0.00 0.00 75 1022.0
20260902200050 60 115 0.0 0.0 0.00 0.00 0.00 73 1021.9
20260902194546 61 115 0.0 0.0 0.00 0.00 0.00 72 1021.9
20260902193046 61 115 0.0 0.0 0.00 0.00 0.00 69 1022.0
20260902191545 62 115 0.0 0.0 0.00 0.00 0.00 68 1021.7
20260902190052 63 115 0.0 0.0 0.00 0.00 0.00 66 1021.9
20260902184545 64 115 1.0 2.0 0.00 0.00 0.00 64 1021.7
20260902183044 65 115 2.0 4.0 0.00 0.00 0.00 62 1021.4
20260902181544 66 121 2.0 7.0 0.00 0.00 0.00 61 1021.5
20260902180044 67 131 4.0 8.0 0.00 0.00 0.00 59 1021.4
20260902174542 68 113 3.0 10.0 0.00 0.00 0.00 57 1021.3
20260902173042 69 125 5.0 9.0 0.00 0.00 0.00 55 1021.4
20260902171542 69 116 6.0 12.0 0.00 0.00 0.00 54 1021.2
20260902170042 69 124 8.0 13.0 0.00 0.00 0.00 54 1021.0
20260902164541 70 96 6.0 11.0 0.00 0.00 0.00 53 1021.0
20260902163052 70 77 6.0 13.0 0.00 0.00 0.00 50 1021.1
20260902161539 71 122 7.0 12.0 0.00 0.00 0.00 49 1021.2
20260902160037 71 128 8.0 15.0 0.00 0.00 0.00 50 1021.3
20260902154537 71 99 5.0 12.0 0.00 0.00 0.00 50 1021.1
20260902153036 71 101 9.0 14.0 0.00 0.00 0.00 51 1021.2
20260902151536 71 108 7.0 16.0 0.00 0.00 0.00 51 1021.2
20260902150035 71 110 7.0 13.0 0.00 0.00 0.00 52 1021.3
20260902144538 71 163 10.0 16.0 0.00 0.00 0.00 52 1021.4
20260902143034 70 94 5.0 14.0 0.00 0.00 0.00 52 1021.4
20260902141538 71 107 8.0 13.0 0.00 0.00 0.00 54 1021.3
20260902140037 70 144 7.0 13.0 0.00 0.00 0.00 53 1021.3
20260902134539 70 112 5.0 15.0 0.00 0.00 0.00 54 1021.4
20260902133030 71 153 8.0 14.0 0.00 0.00 0.00 54 1021.5
20260902131542 70 90 9.0 18.0 0.00 0.00 0.00 56 1021.7
20260902130025 69 106 7.0 11.0 0.00 0.00 0.00 59 1021.5
20260902124526 69 140 10.0 16.0 0.00 0.00 0.00 58 1021.6
20260902123026 69 106 7.0 14.0 0.00 0.00 0.00 59 1021.6
20260902121525 69 90 5.0 18.0 0.00 0.00 0.00 57 1021.8
20260902120023 69 129 5.0 15.0 0.00 0.00 0.00 60 1021.7
20260902114525 68 94 8.0 17.0 0.00 0.00 0.00 58 1021.8
20260902113023 68 158 8.0 15.0 0.00 0.00 0.00 61 1021.7
20260902111522 68 92 13.0 17.0 0.00 0.00 0.00 60 1021.8
20260902110021 68 90 8.0 15.0 0.00 0.00 0.00 60 1022.0
20260902104521 68 102 8.0 14.0 0.00 0.00 0.00 62 1022.0
20260902103020 68 113 8.0 16.0 0.00 0.00 0.00 59 1022.2
20260902101519 69 92 8.0 15.0 0.00 0.00 0.00 59 1022.1
20260902100016 69 145 8.0 14.0 0.00 0.00 0.00 62 1022.1
20260902094512 68 122 6.0 10.0 0.00 0.00 0.00 63 1022.1
20260902093011 68 130 3.0 11.0 0.00 0.00 0.00 64 1022.0
20260902091521 68 130 4.0 12.0 0.00 0.00 0.00 63 1022.1
20260902090006 67 116 5.0 10.0 0.00 0.00 0.00 65 1022.1
20260902084502 66 102 5.0 8.0 0.00 0.00 0.00 68 1021.9
20260902083059 65 102 6.0 9.0 0.00 0.00 0.00 69 1021.7
20260902081556 64 122 4.0 8.0 0.00 0.00 0.00 73 1021.7
20260902080105 62 127 3.0 6.0 0.00 0.00 0.00 76 1021.7
20260902074547 60 78 1.0 4.0 0.00 0.00 0.00 80 1021.3
20260902073043 59 42 0.0 1.0 0.00 0.00 0.00 85 1021.6
20260902071556 58 42 0.0 0.0 0.00 0.00 0.00 87 1021.7
20260902070037 57 42 0.0 0.0 0.00 0.00 0.00 88 1021.6
20260902064535 56 42 0.0 0.0 0.00 0.00 0.00 87 1021.4
20260902063042 55 42 0.0 0.0 0.00 0.00 0.00 88 1021.0